Вернуться в каталог

FREGAT R/B

АктивенHEO
NORAD 39621·ROCKET BODY·🇷🇺 Russia

Запущен Mar 23, 2014 с Plesetsk Cosmodrome

Loading…

Ближайшие Пролёты (ближайшие 24 часа)

TLE

СвежийSource: Space-Track

Эпоха: Sep 14, 2026, 05:08 UTC

1 39621U 14012B   26257.21402982 -.00000062  00000-0  00000-0 0  9998
2 39621  65.3789 317.3935 0063847  98.1532 262.6440  2.08922201 95204

Отслеживайте FREGAT R/B в реальном времени с AllMySat

Download on the App Store